Rock Springs, WY

2:41 PM MDT on May 22, 2018 (GMT -0600)
Rock Springs-Sweetwater

Weather History for KRKS - August, 2014

Change the Weather History Date:

Sunday, August 17, 2014

  Actual Average Record
Temperature  
Mean Temperature 70 °F 67 °F  
Max Temperature 87 °F 82 °F 90 °F (1948)
Min Temperature 52 °F 52 °F 35 °F (1968)
Degree Days  
Heating Degree Days 0 1  
Month to date heating degree days 3 11  
Since 1 June heating degree days 164 202  
Since 1 July heating degree days 17 35  
Cooling Degree Days 5 3  
Month to date cooling degree days 63 70  
Year to date cooling degree days 292 250  
Since 1 June cooling degree days 285 249  
Growing Degree Days 19 (Base 50)    
Moisture  
Dew Point 31 °F    
Average Humidity 30    
Maximum Humidity 50    
Minimum Humidity 10    
Precipitation  
Precipitation T in 0.02 in 0.29 in (1968)
Month to date precipitation 0.30 0.33  
Year to date precipitation 2.26 5.49  
Sea Level Pressure  
Sea Level Pressure 30.03 in    
Wind  
Wind Speed 8 mph (West)    
Max Wind Speed 29 mph    
Max Gust Speed 37 mph    
Visibility 10 miles    
Events      
T = Trace of Precipitation, MM = Missing Value Source: NWS Daily Summary

Daily Weather History Graph

Daily Weather History Graph

Search for Another Location

Airport or City:

Astronomy

Aug. 17, 2014 Rise Set
Actual Time 6:27 AM MDT 8:12 PM MDT
Civil Twilight 5:57 AM MDT 8:42 PM MDT
Nautical Twilight 5:21 AM MDT 9:18 PM MDT
Astronomical Twilight 4:42 AM MDT 9:56 PM MDT
Moon No Moon Rise 2:22 PM MDT (8/17)
Length of Visible Light 14h 45m
Length of Day
13h 45m
Waning Gibbous, 48% of the Moon is Illuminated
Aug 17
Waning Gibbous
Aug 25
New
Sep 2
First Quarter
Sep 8
Full
Sep 15
Last Quarter

Hourly Weather History & Observations

Time (MDT) Temp. Dew Point Humidity Pressure Visibility Wind Dir Wind Speed Gust Speed Precip Events Conditions
12:54 AM 64.0 °F 33.1 °F 31% 30.02 in 10.0 mi Calm Calm - N/A   Clear
1:54 AM 64.9 °F 32.0 °F 29% 29.99 in 10.0 mi SW 3.5 mph - N/A   Clear
2:54 AM 57.0 °F 33.1 °F 40% 30.01 in 10.0 mi SSW 6.9 mph - N/A   Clear
3:54 AM 57.9 °F 33.1 °F 39% 30.02 in 10.0 mi SW 9.2 mph - N/A   Clear
4:54 AM 57.9 °F 34.0 °F 41% 30.03 in 10.0 mi SW 8.1 mph - N/A   Clear
5:54 AM 55.9 °F 33.1 °F 42% 30.04 in 10.0 mi South 9.2 mph - N/A   Clear
6:54 AM 52.0 °F 33.1 °F 49% 30.08 in 10.0 mi NNE 4.6 mph - N/A   Clear
7:54 AM 60.1 °F 34.0 °F 38% 30.07 in 10.0 mi Calm Calm - N/A   Clear
8:54 AM 62.1 °F 35.1 °F 37% 30.09 in 10.0 mi South 3.5 mph - N/A   Clear
9:54 AM 70.0 °F 35.1 °F 28% 30.06 in 10.0 mi Calm Calm - N/A   Clear
10:54 AM 75.9 °F 33.1 °F 21% 30.04 in 10.0 mi WNW 6.9 mph - N/A   Clear
11:54 AM 80.1 °F 30.9 °F 17% 30.02 in 10.0 mi WSW 10.4 mph - N/A   Clear
12:54 PM 82.9 °F 28.0 °F 14% 30.00 in 10.0 mi WNW 11.5 mph 18.4 mph N/A   Clear
1:50 PM 84.2 °F 26.6 °F 12% 30.27 in 10.0 mi WNW 9.2 mph 24.2 mph N/A   Partly Cloudy
1:54 PM 84.9 °F 27.0 °F 12% 29.98 in 10.0 mi NW 15.0 mph 21.9 mph N/A   Partly Cloudy
2:54 PM 86.0 °F 24.1 °F 10% 29.98 in 10.0 mi WNW 12.7 mph 29.9 mph N/A   Clear
4:37 PM 86.0 °F 25.0 °F 11% 30.22 in 10.0 mi WNW 20.7 mph 26.5 mph N/A   Clear
4:54 PM 84.0 °F 24.1 °F 11% 29.94 in 10.0 mi West 21.9 mph 25.3 mph N/A   Clear
5:54 PM 82.0 °F 24.1 °F 12% 29.94 in 10.0 mi NNW 5.8 mph 16.1 mph N/A   Clear
6:21 PM 81.0 °F 27.0 °F 14% 30.20 in 10.0 mi West 13.8 mph - N/A   Clear
6:54 PM 80.1 °F 27.0 °F 14% 29.96 in 10.0 mi WSW 9.2 mph - N/A   Scattered Clouds
7:54 PM 73.0 °F 36.0 °F 26% 29.97 in 10.0 mi ENE 9.2 mph 17.3 mph 0.00 in   Mostly Cloudy
8:54 PM 72.0 °F 34.0 °F 25% 29.98 in 10.0 mi Variable 4.6 mph - N/A   Mostly Cloudy
9:54 PM 69.1 °F 34.0 °F 27% 29.98 in 10.0 mi NW 8.1 mph - N/A   Clear
10:54 PM 66.9 °F 34.0 °F 30% 29.97 in 10.0 mi North 5.8 mph - N/A   Clear
11:54 PM 69.1 °F 30.0 °F 23% 29.95 in 10.0 mi NNE 3.5 mph - N/A   Clear